Location: Maiden
(35.5760°N, 81.2120°W)
Time: 16:53:16
(UTC-05:00)

N. Korean satellite - Visible Passes

Search period start: 16 November 2018 00:00
Search period end: 26 November 2018 00:00
Orbit: 457 x 511 km, 97.2° (Epoch: 15 November)

Date Brightness Start Highest point End Pass type
(mag) Time Alt. Az. Time Alt. Az. Time Alt. Az.
16 Nov 7.8 06:24:05 10° NNE 06:27:24 44° E 06:30:41 10° S visible
16 Nov 8.4 18:30:09 10° SSW 18:33:29 34° W 18:36:47 10° NNW visible
17 Nov 9.5 06:00:12 10° NE 06:02:49 20° E 06:05:24 10° SE visible
17 Nov 6.7 18:05:20 10° S 18:08:58 79° W 18:12:34 10° NNW visible
18 Nov 6.9 17:41:04 10° SSE 17:44:32 44° ENE 17:47:57 10° N visible
19 Nov 9.6 18:50:55 10° SW 18:53:29 18° W 18:56:02 10° NW visible
20 Nov 8.1 06:19:33 10° NNE 06:22:47 38° E 06:26:01 10° SSE visible
20 Nov 8.1 18:25:31 10° SSW 18:28:54 38° W 18:32:15 10° NNW visible
21 Nov 9.7 05:55:48 10° NE 05:58:12 18° E 06:00:36 10° SE visible
21 Nov 6.5 18:00:48 10° SSE 18:04:23 89° ESE 18:07:57 10° N visible
22 Nov 7.0 17:36:36 10° SE 17:39:56 38° ENE 17:43:15 10° N visible
23 Nov 6.6 06:39:14 10° NNE 06:42:42 81° ESE 06:46:09 10° S visible
23 Nov 9.4 18:46:08 10° SW 18:48:51 20° W 18:51:34 10° NW visible
24 Nov 8.5 06:15:00 10° NNE 06:18:09 33° E 06:21:19 10° SSE visible
24 Nov 7.8 18:20:52 10° S 18:24:17 44° W 18:27:40 10° NNW visible
25 Nov 9.8 05:51:22 10° NE 05:53:32 16° E 05:55:41 10° SE visible
25 Nov 6.4 17:56:13 10° SSE 17:59:45 77° E 18:03:16 10° N visible
